This is the latest recevied weather packets stored in our database for station/object OE2ATN. If no packets are shown the sender has not sent any weather packets the latest 1 day(s).
| Time | Temp. | Humidity | Pressure | Rain* | Wind** | Luminosity | Snow |
|---|---|---|---|---|---|---|---|
| 1777982397 | 21.11° C | 38% | 1014.4 hPa | 0 mm | 3.13 m/s, 94° | - | - |
| 1777982097 | 21.11° C | 37% | 1014.5 hPa | 0 mm | 2.68 m/s, 128° | - | - |
| 1777981797 | 21.67° C | 35% | 1014.5 hPa | 0 mm | 2.24 m/s, 114° | - | - |
| 1777981495 | 21.67° C | 36% | 1014.6 hPa | 0 mm | 2.24 m/s, 140° | - | - |
| 1777981195 | 22.22° C | 34% | 1014.6 hPa | 0 mm | 2.68 m/s, 127° | - | - |
| 1777980895 | 22.22° C | 36% | 1014.5 hPa | 0 mm | 2.68 m/s, 82° | - | - |
| 1777980596 | 22.78° C | 35% | 1014.5 hPa | 0 mm | 2.68 m/s, 99° | - | - |
| 1777980297 | 22.78° C | 30% | 1014.6 hPa | 0 mm | 2.68 m/s, 161° | - | - |
| 1777979996 | 22.22° C | 33% | 1014.6 hPa | 0 mm | 2.68 m/s, 116° | - | - |
| 1777979696 | 22.22° C | 33% | 1014.7 hPa | 0 mm | 1.34 m/s, 107° | - | - |
| 1777979395 | 22.22° C | 33% | 1014.7 hPa | 0 mm | 1.34 m/s, 109° | - | - |
| 1777979096 | 22.22° C | 34% | 1014.7 hPa | 0 mm | 2.68 m/s, 79° | - | - |
| 1777978796 | 22.22° C | 32% | 1014.8 hPa | 0 mm | 2.24 m/s, 97° | - | - |
| 1777978496 | 22.22° C | 35% | 1014.8 hPa | 0 mm | 2.68 m/s, 103° | - | - |
| 1777978195 | 21.67° C | 34% | 1014.9 hPa | 0 mm | 1.79 m/s, 94° | - | - |
| 1777977895 | 21.67° C | 36% | 1014.9 hPa | 0 mm | 3.13 m/s, 128° | - | - |
| 1777977595 | 21.67° C | 37% | 1015.1 hPa | 0 mm | 2.24 m/s, 103° | - | - |
| 1777977295 | 21.67° C | 35% | 1015.2 hPa | 0 mm | 3.13 m/s, 110° | - | - |
| 1777976995 | 21.67° C | 35% | 1015.2 hPa | 0 mm | 3.13 m/s, 79° | - | - |
| 1777976695 | 21.67° C | 34% | 1015.3 hPa | 0 mm | 3.58 m/s, 106° | - | - |
| 1777976397 | 21.67° C | 35% | 1015.3 hPa | 0 mm | 2.24 m/s, 90° | - | - |
| 1777976095 | 21.11° C | 33% | 1015.4 hPa | 0 mm | 0.89 m/s, 107° | - | - |
| 1777975794 | 21.11° C | 36% | 1015.6 hPa | 0 mm | 2.24 m/s, 102° | - | - |
| 1777975494 | 21.11° C | 39% | 1015.4 hPa | 0 mm | 3.58 m/s, 117° | - | - |
| 1777975197 | 21.11° C | 35% | 1015.6 hPa | 0 mm | 2.68 m/s, 114° | - | - |
* Rain latest hour (hover to see other rain measurements)
** Current wind speed in m/s (hover to see current wind gust speed)